Volver al catálogo

EKVADOR-UTE-YUZGU

ActivoCienciaSSO
NORAD 42832·PAYLOAD·🇷🇺 Russia
Este nombre de satélite aún no ha sido confirmado por fuentes oficiales.

Lanzado Jul 14, 2017 desde Baikonur Cosmodrome

Loading…

Próximos Pases (próximas 24 horas)

TLE

ActualizadoSource: Space-Track

Época: Sep 14, 2026, 10:03 UTC

1 42832U 17042H   26257.41898293  .00002899  00000-0  18843-3 0  9994
2 42832  97.4281  54.9762 0010360 158.2622 201.9048 15.08727085500395

Sigue EKVADOR-UTE-YUZGU en tiempo real con AllMySat

Download on the App Store